Location: Unspecified
(0.0000°N, 0.0000°E)
Time: 08:52:58
(UTC+00:00)

S-56A Canister/Altair - Visible Passes

Search period start: 29 November 2023 00:00
Search period end: 09 December 2023 00:00
Orbit: 640 x 2489 km, 38.9° (Epoch: 28 November)

Date Brightness Start Highest point End Pass type
(mag) Time Alt. Az. Time Alt. Az. Time Alt. Az.
29 Nov 11.7 02:02:43 10° SSW 02:04:35 10° SSW 02:06:26 10° SSW visible
29 Nov 10.2 19:01:58 10° N 19:08:09 20° NE 19:08:09 20° NE visible
29 Nov 10.6 21:03:02 10° NW 21:31:19 - SE 21:05:39 22° NW visible
29 Nov 11.2 23:28:34 24° S 23:28:34 24° S 23:34:07 10° SSE visible
30 Nov 11.6 01:25:49 11° SW 01:30:05 12° SSW 01:35:17 10° S visible
30 Nov 10.3 18:30:01 10° N 18:34:56 15° NE 18:38:17 13° ENE visible
30 Nov 9.7 20:29:57 10° NW 20:35:49 44° NNW 20:35:49 44° NNW visible
30 Nov 11.2 22:55:20 23° SSE 22:55:20 23° SSE 23:00:19 10° SSE visible
01 Dec 11.6 00:52:33 13° SW 00:55:37 14° SSW 01:02:37 10° S visible
01 Dec 9.3 19:57:00 10° NNW 20:06:11 58° NE 20:06:41 58° NE visible
01 Dec 10.9 22:01:29 10° WNW 22:21:32 23° SSE 22:26:24 10° SSE visible
02 Dec 11.5 00:18:40 16° SW 00:21:10 17° SSW 00:29:29 10° S visible
02 Dec 9.3 19:24:10 10° NNW 19:32:36 48° NE 19:39:06 27° ESE visible
02 Dec 10.0 21:27:57 10° WNW 21:46:13 28° SSE 21:52:24 10° SE visible
02 Dec 11.4 23:43:03 17° SW 23:46:47 19° SSW 23:56:07 10° S visible
03 Dec 9.4 18:51:28 10° NNW 18:59:07 40° NE 19:10:05 10° ESE visible
03 Dec 9.7 20:54:32 10° WNW 21:04:24 61° SW 21:18:19 10° SE visible
03 Dec 11.3 23:03:33 10° WSW 23:12:27 21° SSW 23:22:33 10° SSE visible
04 Dec 9.5 18:18:54 10° NNW 18:25:43 32° NE 18:35:15 10° ESE visible
04 Dec 9.5 20:21:17 10° WNW 20:30:34 69° SW 20:44:10 10° SE visible
04 Dec 11.2 22:29:11 10° WSW 22:38:11 23° SSW 22:48:51 10° SSE visible
05 Dec 11.5 05:05:57 10° SSW 05:13:16 18° SSE 05:19:10 10° ESE visible
05 Dec 9.2 19:48:07 10° NW 19:56:50 78° SW 20:09:58 10° SE visible
05 Dec 11.0 21:55:03 10° W 22:04:00 26° SSW 22:15:04 10° SSE visible
06 Dec 11.6 04:32:13 10° S 04:39:16 16° SSE 04:45:09 10° ESE visible
06 Dec 9.0 19:15:05 10° NW 19:23:12 89° SW 19:35:42 10° SE visible
06 Dec 10.9 21:21:09 10° W 21:29:54 29° SSW 21:41:11 10° SSE visible
07 Dec 11.7 03:58:30 10° S 04:05:10 15° SSE 04:10:54 10° SE visible
07 Dec 8.9 18:42:09 10° NW 18:49:42 78° NE 19:01:23 10° SE visible
07 Dec 10.7 20:47:26 10° W 20:55:54 32° SSW 21:07:16 10° SSE visible
07 Dec 11.8 23:02:40 10° SSW 23:05:24 11° SSW 23:08:15 10° S visible
08 Dec 11.8 03:24:52 10° S 03:30:56 14° SSE 03:36:21 10° SE visible
08 Dec 10.5 05:27:53 10° SSW 05:39:16 42° SE 05:47:07 10° ENE visible
08 Dec 8.8 18:09:19 10° NW 18:16:18 65° NE 18:27:03 10° SE visible
08 Dec 10.5 20:13:52 10° W 20:21:59 35° SSW 20:33:17 10° SSE visible
08 Dec 11.8 22:26:53 10° SW 22:30:58 12° SSW 22:35:21 10° S visible
